TJS-6

Last updated on Thu Sep 10 2026 00:03:00 GMT+0000 (Coordinated Universal Time)

1 47613U 21010A 26252.60581514 .00000021 00000+0 00000+0 0 9993 2 47613 0.0460 250.7900 0003630 295.6519 198.8306 1.00268707 20654
UTC large
Height (km)
Speed (km/s)
/
Latitude / Longitude
Inclination (degrees)
Orbital Period (minutes)
Azimuth
Elevation
Range (km)
Doppler Factor

Next 0 passes for location: London (51.5072 / 0.1276)

No passes found over London.
TJS-6